RH
3 3 3 3 3 3 3 3 2 2 2 2 2 2 2 2 2 2 2 2 5 7 9 9 9 10 10 10 10 10 10 10 10 10 10 10 10 10 10 10 11 11 11 11 11 11 11 12 12 11 11 11 12 12 12 12 12 13 13 13 15 18 19 19 17 12 11 11 10 13 18 22 21 19 18 20 24 23 28 36 35 43 53 49 67 82 38
4 4 3 3 3 3 3 3 3 2 2 2 2 2 2 2 2 1 1 2 3 4 4 5 7 8 10 11 11 11 11 10 10 10 10 10 10 10 10 11 11 11 11 11 11 11 12 12 12 12 12 12 12 13 12 13 13 13 13 14 16 17 18 19 20 18 17 16 15 15 18 20 18 15 16 18 21 24 27 31 39 48 46 42 62 67 26
4 4 4 3 3 3 3 3 3 3 2 2 2 3 2 2 2 2 2 2 2 2 2 2 3 5 7 9 10 11 11 11 11 11 11 11 10 11 11 11 11 11 12 12 12 12 12 13 13 12 13 13 13 13 13 14 14 13 14 14 15 17 16 17 20 23 25 23 20 17 15 17 17 15 17 18 21 27 28 31 44 50 44 43 53 45 16
4 4 4 3 3 3 3 3 3 3 3 3 2 3 3 3 2 2 2 2 2 2 2 2 3 3 5 7 8 9 10 11 11 11 11 11 11 12 12 12 12 12 12 12 12 13 13 13 14 13 13 13 13 14 14 14 14 13 14 13 15 16 15 15 16 18 19 17 15 15 15 17 17 15 16 18 20 25 29 37 43 39 40 43 35 25 20
4 3 3 3 3 3 3 3 3 3 3 3 2 3 3 3 3 3 3 3 3 2 2 3 3 3 5 6 7 8 8 10 10 10 10 11 12 12 12 12 13 13 13 13 13 14 14 14 14 13 14 13 13 14 13 13 13 13 13 14 15 16 14 14 14 14 14 13 12 14 17 17 16 15 15 15 17 21 26 32 30 26 39 41 19 15 25
3 3 3 3 3 3 3 3 3 3 3 3 3 3 3 3 3 3 3 3 3 3 3 3 3 4 5 6 7 8 9 10 11 11 11 11 12 12 12 12 14 14 14 14 14 15 14 14 13 13 13 13 13 13 12 13 12 12 14 15 15 17 16 14 15 14 14 16 15 15 17 16 15 16 14 13 16 20 21 22 23 27 37 31 13 14 21
4 3 3 3 3 3 2 2 2 2 3 3 3 3 3 3 3 3 3 3 3 3 3 3 3 4 5 7 8 9 9 10 11 11 11 12 12 13 13 14 14 15 15 16 16 16 15 14 13 13 13 14 13 13 13 13 13 14 16 16 17 19 18 17 19 16 14 18 18 16 15 15 15 15 14 15 17 18 18 16 19 26 26 17 13 17 17
7 6 6 5 5 5 4 4 3 3 3 2 2 3 3 3 3 3 3 3 3 4 4 4 4 4 5 6 6 6 7 7 8 9 9 9 10 11 12 12 13 14 15 15 15 15 15 15 14 14 14 14 14 14 14 14 14 15 16 17 18 21 20 19 21 19 15 18 20 18 17 19 19 15 12 14 16 15 16 15 17 22 20 15 17 19 15
7 6 6 6 6 6 5 5 5 5 5 4 4 4 3 3 3 3 3 3 4 4 4 4 4 4 4 4 4 5 5 5 5 5 6 6 7 8 8 8 9 9 10 11 11 12 13 13 13 13 14 14 14 14 13 14 15 15 16 17 17 20 21 20 24 26 18 16 20 20 20 20 18 13 10 12 15 15 16 17 17 19 18 17 19 18 14
4 4 4 4 3 4 3 3 4 4 4 4 5 5 5 5 5 4 4 4 3 4 4 4 4 4 4 4 4 4 4 5 5 5 5 5 5 6 6 7 7 7 8 9 9 10 10 10 11 11 12 13 13 13 13 13 14 14 15 18 17 19 22 23 30 33 21 15 20 20 18 19 17 12 10 11 14 15 15 16 16 15 16 17 17 16 16
3 2 2 2 2 2 2 2 2 2 2 3 3 4 5 6 6 7 8 7 6 6 6 5 5 5 5 5 6 6 5 6 6 5 6 6 6 7 6 7 7 7 8 9 8 9 9 9 10 11 11 12 11 12 12 12 14 15 16 19 19 20 24 27 34 37 25 17 21 20 19 22 17 11 10 12 14 15 16 17 15 14 15 17 17 18 20
2 2 2 2 2 2 1 1 1 2 2 2 2 2 3 3 5 7 8 9 10 10 10 10 9 8 8 8 7 7 7 7 7 7 8 8 8 8 7 8 8 8 8 9 8 9 9 9 10 9 10 11 10 11 12 12 14 16 16 18 19 19 24 28 32 36 29 21 22 25 24 20 12 9 11 13 15 16 16 16 14 13 14 18 20 21 20
2 2 2 2 2 1 1 2 1 1 1 1 2 2 2 2 3 3 4 5 7 9 10 11 12 13 13 12 11 10 10 9 9 9 9 9 9 9 9 9 9 9 10 10 10 10 10 10 10 9 9 11 10 11 12 13 14 15 15 17 17 17 21 25 29 32 30 27 28 29 23 13 7 9 12 13 16 17 17 17 13 12 15 20 22 21 19
2 2 2 2 2 2 1 1 1 1 2 1 1 2 1 2 2 2 2 3 3 5 7 9 10 12 13 14 14 15 14 13 12 10 10 10 9 10 10 10 10 10 10 11 11 11 11 11 11 10 10 11 12 12 13 14 14 14 14 16 16 17 20 23 28 31 30 31 30 24 19 13 8 9 13 15 17 18 19 20 16 13 18 23 22 21 21
2 2 1 1 1 1 1 1 1 1 1 1 1 2 1 2 2 2 2 2 2 4 5 5 5 5 7 9 11 13 14 14 14 13 12 12 11 10 11 10 11 11 11 11 11 11 12 13 13 13 13 14 16 16 15 15 15 14 15 17 17 19 19 21 27 30 29 35 37 33 31 23 11 9 14 16 16 16 19 21 18 16 21 25 23 23 24
1 1 1 1 1 1 1 1 1 1 1 1 1 1 1 1 2 2 2 2 2 3 3 2 2 3 4 6 8 10 11 12 13 14 14 14 12 12 11 11 10 11 10 11 12 13 13 13 14 16 16 16 18 18 16 16 17 15 16 18 19 20 20 21 26 28 28 36 42 41 36 23 9 10 16 17 18 18 21 24 23 20 23 25 24 25 26
1 1 1 1 1 1 1 1 1 1 1 1 1 1 1 1 2 2 2 3 2 3 3 2 3 3 3 5 6 7 8 10 12 13 14 15 15 13 12 11 11 11 11 13 14 13 13 13 15 18 17 15 18 19 17 17 18 16 17 19 20 21 22 23 26 26 27 35 41 36 27 15 11 15 18 19 21 22 26 33 30 23 24 25 24 25 25
1 1 1 1 1 1 1 1 1 1 1 1 1 1 1 1 2 2 3 3 3 4 4 4 4 3 3 4 4 5 8 10 12 15 17 18 16 14 13 13 13 13 13 14 14 12 13 14 16 18 17 16 19 21 20 20 19 18 18 20 21 22 22 24 26 24 25 33 39 32 19 12 15 19 18 19 24 26 30 35 31 26 26 25 23 24 24
1 1 1 1 1 1 1 1 1 1 1 1 1 1 2 1 2 2 3 4 4 4 5 5 5 5 4 4 4 5 7 10 14 18 21 20 17 17 18 18 17 16 13 12 12 13 14 15 17 20 20 19 21 24 22 20 18 17 18 20 22 23 24 25 25 25 26 31 36 33 22 14 15 17 17 21 26 28 31 31 29 28 28 25 23 22 22
1 1 2 1 1 1 1 1 1 1 1 1 1 2 2 1 2 2 3 5 5 5 5 6 6 6 6 5 5 5 6 10 15 20 24 25 25 24 23 21 18 16 14 12 12 14 15 15 17 21 21 20 22 23 20 17 15 15 17 19 19 20 25 25 23 25 29 31 33 33 25 17 15 17 21 26 28 31 33 33 30 29 29 28 25 23 23
1 1 2 1 1 1 1 1 1 1 1 1 1 2 2 2 2 2 3 4 5 5 6 6 7 7 7 7 7 7 8 10 13 18 23 28 30 29 27 24 20 15 12 12 13 15 17 18 19 21 21 21 21 21 20 18 15 12 14 17 17 18 24 26 24 25 28 29 28 24 20 17 19 22 25 28 29 33 36 35 33 33 33 32 30 27 29
1 1 2 2 1 1 1 1 1 1 1 2 2 2 2 2 2 3 4 4 4 5 6 6 7 7 8 8 8 8 9 10 11 14 18 23 28 30 31 35 37 33 26 21 17 15 16 17 17 18 18 19 19 19 21 22 20 15 15 17 18 20 23 26 26 26 27 27 22 17 17 19 23 31 40 43 46 52 53 49 48 46 42 40 40 39 38
2 2 2 2 2 2 1 1 1 1 1 2 2 1 1 2 2 3 4 4 4 5 6 6 6 7 7 7 8 9 9 10 11 13 13 16 22 26 29 37 48 53 54 50 42 35 32 29 27 27 25 25 27 27 26 26 25 21 17 17 20 22 24 27 28 28 29 26 20 20 27 31 35 48 62 65 65 67 66 63 62 60 55 51 49 48 44
1 2 2 2 2 2 1 1 1 1 1 1 1 1 2 2 2 3 4 5 5 6 6 5 6 7 7 8 8 9 9 9 9 10 9 9 14 19 25 33 40 49 62 69 66 64 62 58 53 50 45 42 42 39 35 32 30 27 24 23 24 24 25 28 30 32 33 29 24 30 42 46 50 61 67 67 65 62 58 58 61 61 59 55 53 52 51
1 2 2 1 1 1 1 1 1 1 1 2 1 1 2 2 2 3 3 4 6 6 6 6 7 7 8 8 8 7 8 7 6 6 6 7 8 11 17 22 25 33 49 61 65 68 72 71 69 68 65 60 56 54 52 50 49 49 46 42 38 34 34 35 34 34 37 37 38 48 56 54 56 62 63 62 64 62 57 60 65 65 61 56 55 57 58
2 1 2 2 2 2 1 1 1 1 1 1 1 2 2 2 2 2 2 3 4 6 6 7 7 7 7 8 8 8 7 6 5 5 6 6 7 7 9 13 16 21 31 42 50 57 64 67 70 73 74 71 65 63 64 64 64 65 62 59 57 55 53 51 46 44 50 55 60 70 71 58 50 57 63 64 65 63 62 66 71 69 64 59 56 59 63
1 1 2 2 1 2 1 1 2 1 1 1 1 2 2 1 2 2 1 1 3 4 5 6 6 6 7 7 9 9 9 8 8 9 8 8 9 9 9 10 12 14 18 23 28 34 39 43 47 51 58 64 61 56 55 58 59 56 52 53 58 60 60 62 61 60 66 72 74 78 78 64 51 54 63 67 67 68 68 70 70 69 67 65 62 62 67
1 1 2 2 1 2 2 1 2 2 2 2 1 1 2 2 2 2 1 1 2 3 4 4 5 5 6 7 8 9 10 9 9 9 8 9 10 11 10 10 11 12 13 14 15 18 20 22 26 31 42 54 54 44 42 49 49 40 33 39 49 54 57 64 70 72 74 76 75 74 72 66 57 56 59 63 67 71 72 71 71 71 71 72 73 71 71
1 2 2 2 2 2 1 2 2 2 2 2 2 2 2 2 2 2 2 2 2 2 3 3 4 4 5 5 5 6 6 6 5 4 5 6 7 7 7 8 8 8 9 10 10 12 13 15 22 29 37 47 48 38 36 44 41 28 28 39 48 54 61 71 79 82 77 71 68 65 59 55 54 55 56 60 66 71 72 73 74 74 73 75 76 75 74
1 2 1 2 2 2 2 2 2 2 2 2 2 2 2 2 2 2 2 2 2 2 2 3 3 3 3 3 4 5 5 4 3 3 3 4 4 4 3 4 4 4 5 6 6 6 7 10 15 19 24 35 41 35 33 36 29 20 27 40 45 50 60 71 79 82 72 59 56 57 53 51 52 52 52 56 61 66 68 71 72 73 74 75 75 75 74
1 1 2 2 2 2 2 2 2 2 2 2 2 2 2 2 2 2 2 2 2 2 2 2 2 2 2 2 2 4 5 4 3 3 3 3 4 4 3 4 4 3 4 4 4 4 5 6 7 7 11 21 28 24 21 24 21 14 19 30 36 43 52 57 61 65 61 52 50 52 52 53 54 54 54 55 56 58 60 61 62 64 67 70 73 74 72
2 2 2 2 2 2 2 2 2 2 2 2 2 2 2 2 2 2 2 2 2 2 2 2 2 2 2 2 3 4 4 4 4 4 4 4 4 4 4 4 4 4 4 4 4 4 4 4 5 5 8 13 17 13 10 12 12 9 10 16 24 34 42 43 44 49 52 51 51 51 53 53 54 54 53 53 55 58 59 57 56 58 61 64 68 69 68
2 2 2 2 2 3 3 2 3 3 2 3 3 3 3 3 3 2 2 2 2 2 2 2 2 3 3 3 3 4 4 4 4 4 4 4 4 4 4 4 4 4 4 5 6 6 5 5 5 6 6 9 11 10 6 6 6 6 6 8 14 22 30 35 38 43 47 50 51 52 54 54 54 57 59 58 60 64 66 65 64 63 63 64 65 65 65
2 2 2 2 3 3 3 3 3 3 3 3 3 3 3 3 2 2 3 3 2 2 3 2 3 3 3 3 4 4 5 4 4 4 4 4 5 5 4 4 4 4 4 5 6 6 6 7 8 8 8 8 8 7 4 4 4 5 4 6 9 14 21 27 32 36 42 48 51 54 57 58 60 63 65 65 66 69 72 73 73 71 68 66 65 64 62
2 2 2 3 3 3 3 3 3 3 4 4 3 3 3 3 3 3 3 3 3 3 3 3 3 3 3 4 4 4 4 4 5 5 5 5 5 5 5 5 5 5 5 5 5 5 7 9 10 10 9 9 7 5 4 5 5 5 5 5 7 10 14 19 24 29 36 45 51 56 59 61 62 62 61 61 64 68 70 72 75 76 73 68 64 62 60
3 3 3 3 3 3 3 4 4 4 4 4 3 4 3 3 3 3 3 3 4 3 3 4 4 4 4 4 4 4 5 5 5 5 5 5 5 5 5 5 5 5 6 6 6 5 7 10 11 10 8 8 6 4 5 7 7 7 6 6 6 8 10 13 18 23 30 41 52 59 62 63 62 63 63 61 61 65 69 71 74 75 73 69 64 62 60
3 3 3 3 4 4 4 4 4 4 4 4 4 4 4 3 4 4 4 4 4 4 5 4 4 5 5 5 5 5 5 5 5 5 5 6 6 6 6 6 7 8 7 6 6 7 9 10 10 8 6 5 5 4 6 9 10 8 7 7 7 9 13 19 25 31 36 44 54 63 68 67 66 68 69 66 63 63 68 73 77 78 78 75 71 67 65
4 3 4 4 4 5 5 5 5 4 4 4 4 4 4 4 4 4 5 5 5 5 5 5 5 6 6 6 6 6 6 6 7 6 6 6 6 6 8 9 9 11 10 7 7 10 12 10 8 7 6 5 5 5 6 8 9 9 9 9 10 14 22 35 48 57 61 63 65 71 76 77 76 76 78 79 77 75 76 80 83 83 81 78 75 73 70
4 4 4 5 5 5 5 5 5 5 5 5 5 5 5 5 6 6 7 7 6 6 6 7 7 7 6 7 7 7 7 8 7 6 6 7 7 10 12 13 15 17 15 9 8 12 15 12 8 7 6 5 5 6 7 7 8 11 15 18 22 27 38 53 68 79 84 85 85 88 91 93 93 92 91 91 90 87 86 86 85 82 81 79 74 68 62
5 5 5 5 5 5 5 5 5 5 5 5 5 6 7 8 9 8 8 8 8 8 8 8 8 8 8 8 8 7 8 9 8 7 6 6 9 15 16 15 18 22 17 9 8 14 17 14 9 6 6 7 7 7 7 8 12 19 27 32 37 44 55 66 77 86 93 97 98 98 100 100 100 98 97 96 94 91 89 87 84 80 75 72 67 61 56
6 6 6 6 6 5 5 6 6 6 6 7 8 10 11 12 11 10 11 11 11 10 9 9 9 9 9 8 7 8 9 9 8 8 7 7 12 16 15 13 19 23 17 10 12 16 17 14 10 7 7 9 8 7 10 16 22 28 34 40 48 57 67 75 80 88 97 101 101 100 100 100 100 99 99 98 97 93 87 83 80 75 70 67 65 60 53
8 8 7 7 7 7 7 7 7 8 10 12 12 13 14 13 12 13 14 13 11 10 10 10 10 9 8 9 9 9 9 9 9 10 10 10 13 15 12 12 19 23 17 12 14 16 15 13 11 9 9 10 10 10 16 24 28 32 38 48 59 69 78 83 87 92 97 100 100 100 100 100 100 100 100 98 94 89 82 76 71 67 64 61 55 43 30
10 9 9 9 9 9 9 10 11 13 14 15 14 14 14 14 13 14 14 12 11 11 11 9 8 8 8 9 9 9 9 10 11 13 14 14 14 18 20 18 17 18 17 15 14 14 12 11 10 10 10 10 12 15 21 27 32 37 44 53 64 73 82 89 95 98 100 101 101 100 100 100 99 97 94 89 79 70 65 60 53 45 39 34 28 19 14
11 10 11 10 10 11 12 12 13 15 15 15 15 15 15 14 14 13 12 11 11 10 9 7 7 7 7 8 9 9 10 11 12 14 16 15 14 21 28 25 16 14 19 20 17 14 13 10 10 10 11 13 17 23 28 33 41 49 54 59 67 79 91 98 100 99 99 99 100 100 100 98 93 86 79 71 58 45 39 36 31 25 22 22 23 22 22
12 12 12 12 12 13 13 13 14 15 15 15 16 16 15 14 13 11 10 10 9 8 7 7 7 7 7 8 9 9 10 12 13 13 16 20 22 23 25 22 18 24 33 34 25 18 15 12 10 13 17 19 24 30 35 42 53 63 70 73 76 83 93 99 100 99 99 99 97 93 86 74 62 52 45 40 34 28 26 27 29 30 32 35 34 32 31
14 14 15 15 15 15 15 15 15 16 15 16 16 15 13 12 11 10 9 9 8 7 8 8 7 7 8 9 10 10 11 12 13 13 19 30 32 24 17 19 29 43 56 53 35 20 13 12 14 20 26 30 36 44 50 56 64 73 81 87 89 90 93 94 92 88 84 77 69 58 47 36 30 28 29 31 32 34 36 39 44 50 57 58 54 48 44
17 17 18 18 18 18 17 17 17 16 16 15 14 12 11 11 9 8 9 8 8 8 8 8 8 9 9 10 12 12 11 13 15 15 19 29 34 32 31 33 34 37 46 47 33 18 14 20 26 32 38 45 53 60 64 68 72 77 81 82 80 75 70 65 58 51 46 40 34 30 27 26 29 35 42 47 49 49 49 53 59 67 75 78 75 68 63
19 20 20 20 20 19 18 17 16 15 14 12 11 10 10 9 9 9 10 9 9 9 10 9 10 11 11 12 13 13 13 16 18 17 19 29 41 49 53 49 38 28 29 31 26 20 24 33 38 42 48 55 62 65 67 68 67 64 59 54 48 44 41 38 36 34 32 31 31 32 33 36 42 49 55 61 63 62 62 67 73 78 82 83 78 71 66
22 22 22 21 20 19 17 15 14 13 12 11 11 11 11 10 10 11 10 10 11 11 11 12 13 13 13 15 15 14 14 18 21 22 25 30 38 47 53 52 41 31 28 28 29 33 38 42 45 49 55 59 60 59 56 51 45 39 36 35 35 36 37 37 36 35 33 33 34 36 40 47 56 63 67 71 73 74 74 75 76 77 78 75 69 61 55
24 23 22 20 18 16 14 13 12 12 12 12 13 13 12 12 12 12 12 12 13 14 13 15 16 16 16 17 17 17 19 24 28 30 30 28 30 42 54 51 40 32 31 33 35 39 41 42 45 49 51 50 48 44 39 35 32 31 32 32 33 33 34 34 34 35 35 35 37 41 45 53 61 68 73 76 77 73 69 65 64 65 66 63 58 52 47
25 23 20 18 16 14 13 13 13 13 14 15 15 14 14 14 14 15 15 15 16 17 18 20 21 20 20 21 21 23 27 31 30 28 25 22 25 37 47 44 35 33 36 35 33 34 36 38 40 41 40 40 40 39 36 35 34 32 30 29 29 29 29 30 30 31 33 37 43 50 55 60 65 70 74 74 68 60 53 49 48 49 50 50 48 44 40
23 20 17 15 15 15 15 15 16 16 17 18 17 16 17 17 17 17 18 19 20 21 22 23 25 26 27 27 27 30 36 40 36 28 23 21 23 30 38 39 36 36 37 35 34 35 36 36 36 37 39 39 40 39 36 34 30 28 27 28 26 24 22 20 19 20 25 33 41 49 55 59 63 66 68 67 59 49 42 39 37 36 35 36 36 35 34
Wind_Speed
7 7 8 8 8 9 9 10 10 10 11 12 12 13 12 11 11 10 9 9 8 7 7 7 7 6 6 6 6 5 5 5 6 6 7 7 8 8 9 10 10 11 12 12 13 14 14 12 11 13 15 15 17 18 17 18 20 21 20 21 21 19 16 19 24 27 25 21 15 11 9 10 14 18 21 20 19 19 16 15 18 14 15 17 6 7 25
6 6 6 6 7 7 8 8 9 10 10 11 11 12 12 12 12 12 11 12 11 10 9 9 9 8 7 6 6 6 6 6 6 7 8 8 9 9 10 11 11 12 13 13 14 14 13 12 14 15 16 18 19 18 18 20 21 21 22 22 20 17 15 19 23 22 20 17 12 11 14 17 20 23 24 24 23 22 19 20 20 16 20 19 9 11 30
5 5 5 5 5 5 5 6 7 8 8 9 9 9 10 10 10 11 11 13 13 12 12 13 11 10 9 7 7 6 6 6 7 8 9 9 9 10 11 11 12 13 13 14 15 15 14 14 15 17 19 19 19 18 20 22 22 23 23 21 20 19 18 20 18 10 8 12 14 18 24 25 26 27 26 26 25 23 21 20 17 15 19 19 16 23 39
4 4 4 4 4 4 4 4 5 5 6 6 7 7 8 7 8 9 9 10 11 11 12 13 12 11 10 8 7 7 7 7 8 9 9 10 10 11 12 12 13 14 15 15 16 16 16 16 17 19 20 20 20 21 23 24 25 25 23 22 22 23 24 24 22 19 19 22 24 27 29 30 30 30 29 29 29 27 24 20 22 24 23 25 31 39 44
4 3 3 3 3 3 3 4 4 4 4 5 5 5 5 5 6 7 7 7 8 9 10 10 9 10 10 8 8 8 9 9 10 11 11 11 12 13 13 14 15 15 17 18 18 18 19 19 21 21 21 22 23 24 25 26 26 25 24 24 24 27 30 28 28 30 28 26 28 29 29 32 34 31 30 30 29 29 29 27 31 31 24 26 39 41 39
4 4 4 4 4 4 4 4 4 4 4 4 4 4 4 4 4 5 6 5 6 8 8 8 8 8 8 8 8 9 10 10 11 12 12 13 14 15 15 16 17 17 19 20 20 21 22 23 23 23 24 25 25 26 27 26 26 25 25 26 27 29 32 31 31 33 32 29 28 27 29 32 33 30 28 31 32 33 35 35 35 34 28 30 38 39 39
4 5 5 5 6 6 7 7 6 6 5 5 5 5 5 5 4 4 5 5 6 8 9 9 9 9 9 9 9 10 11 11 12 13 14 15 15 16 17 17 18 19 19 20 21 22 24 25 26 26 27 27 27 28 28 27 27 27 28 29 29 28 31 32 32 35 37 32 25 24 27 29 30 31 33 34 34 33 34 33 30 30 32 33 35 36 40
6 6 6 6 6 7 8 8 8 8 8 7 7 6 5 5 5 5 6 7 7 8 10 11 11 11 11 11 12 13 14 15 15 16 17 17 17 18 19 19 20 20 21 22 22 24 25 26 27 28 29 28 29 30 30 30 31 31 31 31 29 27 30 32 32 36 38 32 25 24 24 27 35 37 31 26 27 29 31 30 26 26 28 30 31 35 39
6 7 7 7 8 8 8 9 9 9 9 8 8 8 7 7 8 8 8 9 9 10 11 12 12 13 13 14 15 16 17 18 18 19 19 19 19 20 21 22 22 22 23 24 24 25 25 26 28 29 29 30 30 30 31 32 32 32 32 32 31 29 30 32 30 31 36 34 29 27 28 35 38 27 17 22 31 32 29 25 22 23 25 26 29 35 39
6 7 7 8 8 9 9 9 10 10 10 10 9 9 8 9 9 9 10 10 10 11 12 12 13 14 15 16 17 17 18 19 20 20 20 20 21 22 23 23 24 24 24 24 25 25 26 27 28 28 29 30 30 30 31 31 30 31 31 30 31 29 29 29 24 25 33 34 30 33 36 33 24 15 20 34 35 25 22 20 20 22 25 26 31 36 38
7 8 8 9 9 10 11 11 11 12 11 11 10 10 9 9 9 9 9 10 11 12 12 13 14 15 15 16 17 17 18 19 20 20 20 20 21 22 23 24 24 24 24 25 26 27 28 29 29 29 30 29 29 29 29 27 26 27 27 27 27 26 25 26 22 21 29 34 33 34 27 15 15 25 33 32 23 17 19 20 21 25 29 31 34 35 34
8 9 10 11 11 12 12 12 13 13 13 13 13 13 12 11 10 9 9 9 10 11 12 13 14 15 15 16 17 18 19 19 20 21 21 21 21 22 23 23 24 25 25 26 27 27 28 29 29 29 29 28 28 26 24 24 23 23 24 23 24 25 25 23 21 21 27 33 30 21 13 17 30 35 28 17 15 18 22 21 23 28 33 34 32 31 34
9 10 11 12 13 14 15 16 16 17 17 17 17 16 14 14 13 12 11 11 10 11 12 12 13 14 15 16 17 18 19 19 20 21 21 21 22 22 23 24 25 25 26 26 27 27 29 29 29 29 28 26 26 24 22 22 22 23 24 22 23 25 24 22 22 21 22 24 18 11 18 34 39 29 19 17 19 23 25 27 29 31 31 31 30 34 41
10 12 13 15 16 17 18 19 20 21 21 21 20 20 19 19 18 17 16 15 13 13 12 12 13 14 14 16 17 18 19 20 20 21 21 22 23 23 24 25 26 26 26 27 28 28 28 28 29 30 29 26 25 24 24 24 24 24 24 23 23 23 22 23 21 17 17 20 22 25 31 35 34 26 23 24 26 28 30 32 35 32 27 29 36 42 45
11 13 15 16 18 19 20 21 22 23 23 23 23 24 23 23 22 21 20 19 17 15 15 14 15 15 15 16 17 18 18 19 20 21 21 22 23 23 25 26 26 26 28 29 29 27 26 26 27 28 28 26 24 25 25 25 25 26 24 23 23 21 22 24 19 18 20 21 21 21 18 21 30 32 28 29 30 29 29 32 36 32 28 35 43 44 46
12 14 15 16 17 19 20 21 22 23 23 24 24 24 24 24 23 22 22 21 19 18 17 17 17 17 17 17 17 19 19 20 21 21 21 21 22 24 26 26 26 28 30 29 27 25 25 25 25 24 24 25 23 24 26 26 26 27 25 25 24 22 24 25 22 23 25 20 16 11 9 19 35 34 26 27 29 29 30 31 33 35 37 42 46 45 48
13 14 15 16 17 18 19 20 21 22 23 23 24 24 23 23 23 22 20 20 19 18 18 18 18 18 18 18 18 19 20 21 22 22 23 23 23 25 25 26 28 30 30 28 25 25 26 26 24 24 25 25 24 24 26 26 27 29 28 27 27 25 26 26 26 27 27 24 21 18 20 30 36 27 24 31 33 33 29 22 28 42 45 44 47 50 53
13 14 15 16 17 18 19 19 20 21 22 22 23 22 23 23 22 20 19 18 17 17 17 17 17 18 18 19 19 20 20 21 23 23 24 24 24 25 26 27 29 28 26 25 25 26 28 27 25 25 26 27 25 23 25 26 27 30 31 29 30 30 28 27 27 28 28 25 23 25 33 37 31 25 33 42 39 33 27 25 37 49 46 44 50 54 55
15 15 16 17 17 18 19 19 20 20 21 22 22 22 22 22 21 20 18 17 17 16 15 15 16 16 17 18 19 20 20 22 23 24 25 24 24 26 26 26 25 25 25 25 26 26 28 28 27 25 27 29 26 24 26 29 30 33 34 32 32 31 27 26 27 26 25 23 23 25 31 32 31 37 47 47 38 34 35 39 45 45 43 47 52 52 53
15 15 16 17 17 18 19 19 20 20 21 21 21 21 20 20 20 19 17 16 16 15 15 15 15 15 16 17 18 19 20 21 22 23 25 25 26 27 27 25 24 25 26 27 28 27 29 30 29 27 28 29 27 27 32 35 37 38 37 35 36 34 28 27 28 25 21 18 17 17 23 33 42 50 50 44 40 41 43 44 43 42 45 49 50 49 52
14 15 16 17 17 18 19 20 20 21 21 21 21 20 19 19 19 18 17 17 16 15 15 15 15 15 16 17 18 20 21 22 23 24 24 25 25 25 25 24 24 26 26 27 28 28 27 29 29 28 29 30 30 32 36 38 42 43 40 37 39 38 30 25 27 27 22 20 21 27 36 45 49 48 44 42 43 43 41 41 44 46 48 50 50 51 52
13 14 15 16 16 17 18 19 20 21 21 21 21 20 20 19 18 17 17 17 17 16 15 15 15 15 16 17 18 20 21 22 24 25 25 25 24 24 25 25 24 25 25 26 27 27 27 28 29 30 32 33 35 37 38 39 43 46 45 42 41 39 35 32 33 33 30 32 40 46 48 46 43 43 43 43 43 42 41 42 46 49 49 50 51 52 52
13 14 14 15 16 16 17 18 19 20 20 20 20 20 19 19 18 17 17 17 17 16 16 16 16 16 17 17 18 20 21 23 24 25 27 28 28 28 28 27 26 26 26 26 27 28 29 30 31 32 35 35 36 39 40 41 43 45 46 46 44 41 40 38 36 35 36 42 48 45 39 37 40 42 42 42 42 43 44 46 48 49 48 46 44 43 44
13 14 15 15 16 17 18 18 19 20 20 20 20 19 19 19 18 18 17 16 15 15 16 16 16 16 17 18 19 20 21 23 25 26 27 29 29 29 29 28 28 28 26 26 27 28 29 31 31 34 36 35 35 38 39 40 43 44 45 47 46 43 42 41 40 39 40 43 45 39 35 39 44 43 42 43 44 46 48 50 49 46 43 39 35 32 33
13 14 15 16 17 17 18 19 19 20 20 21 21 20 20 19 19 19 19 17 15 14 15 15 15 16 16 17 18 20 21 22 25 26 27 28 28 28 28 28 28 28 27 26 27 27 28 30 30 32 35 34 35 37 38 39 42 43 46 49 47 45 46 46 44 39 35 36 40 39 39 43 43 42 44 45 45 48 50 48 42 37 34 32 28 26 27
14 15 16 16 17 17 18 19 19 20 20 21 21 21 21 21 21 22 21 19 16 16 16 16 15 16 17 17 19 20 21 23 25 26 27 27 27 27 27 26 26 27 27 27 28 28 29 31 31 32 34 34 36 38 39 39 41 43 46 48 45 43 45 45 40 35 34 38 41 41 42 44 43 42 43 44 44 48 48 41 33 28 28 28 27 24 24
14 15 16 17 17 18 18 19 19 20 20 20 21 21 22 22 23 23 22 21 19 18 18 18 17 18 19 19 20 21 22 23 24 25 26 27 27 27 27 26 26 26 26 26 27 28 29 31 31 32 33 34 35 38 38 39 40 43 45 44 41 41 43 42 39 38 41 45 44 41 42 46 46 43 42 42 42 43 40 35 31 27 25 26 27 26 24
15 16 17 17 18 18 18 19 19 19 20 20 21 21 22 23 23 23 23 22 21 21 20 20 19 19 19 20 20 21 21 22 23 24 25 26 26 26 26 27 27 27 26 27 27 27 28 29 28 29 30 30 33 36 36 37 39 41 40 39 38 37 38 38 38 40 42 43 42 40 41 44 44 41 40 39 38 36 33 30 30 28 27 26 27 29 29
16 17 17 18 18 18 19 19 19 19 20 20 20 21 22 22 23 23 22 22 22 22 21 20 19 19 19 20 21 21 21 22 23 24 24 24 24 24 25 26 26 27 27 27 28 28 28 27 27 26 26 27 30 34 35 36 38 36 33 33 34 33 33 34 36 38 39 40 39 39 39 39 39 38 37 36 35 33 32 30 30 30 30 29 30 31 33
17 17 18 18 19 19 19 19 19 19 20 20 20 21 21 21 22 22 22 22 22 22 21 21 20 18 18 19 21 21 21 22 23 24 24 24 24 24 25 25 25 26 26 26 27 28 29 28 28 28 26 26 29 33 34 36 37 33 30 30 31 31 30 30 31 33 36 38 37 35 34 33 34 34 35 35 34 34 34 34 33 34 35 35 35 35 36
18 19 19 19 19 19 19 19 19 20 20 20 21 21 21 21 22 22 22 23 23 23 22 21 20 18 18 19 21 22 22 23 24 25 25 25 25 26 26 25 26 27 27 27 27 29 29 29 29 29 28 28 29 32 33 34 34 33 30 30 29 28 27 28 28 29 32 33 32 32 32 32 33 34 35 36 37 39 40 41 41 41 41 41 41 41 41
19 20 20 20 20 20 20 20 20 20 21 21 21 21 21 22 22 21 22 23 23 23 23 22 20 19 19 20 21 22 23 24 25 26 27 27 28 29 29 29 29 29 29 29 29 30 32 32 31 30 31 30 31 33 33 31 31 33 34 32 29 27 27 28 28 28 29 30 31 33 34 34 35 38 41 43 45 46 48 49 49 49 49 49 48 47 47
20 20 20 20 20 20 20 20 20 21 21 21 21 21 21 21 22 22 22 23 23 23 23 22 21 20 20 20 21 23 25 27 27 28 29 30 32 33 34 33 33 33 33 33 32 32 34 34 32 33 33 33 33 36 36 33 32 35 37 34 32 30 30 29 30 29 30 31 33 35 37 38 40 43 45 48 49 49 50 52 53 54 56 57 56 55 54
21 21 21 21 21 21 21 21 21 21 21 21 21 20 21 22 22 22 23 23 23 23 23 23 23 22 21 22 24 25 27 29 31 32 33 33 34 36 37 37 36 36 37 37 37 37 36 35 35 36 35 34 35 37 38 38 36 37 37 36 35 35 34 33 33 32 32 34 36 38 40 43 45 47 49 51 52 52 52 52 53 54 55 57 57 58 58
22 22 22 22 22 21 21 21 21 21 21 20 21 21 22 23 23 23 23 23 24 24 23 23 23 24 24 25 26 27 29 31 33 34 35 35 36 37 38 39 39 38 39 40 41 41 40 38 39 40 38 36 37 40 41 41 38 37 37 37 37 38 39 38 37 37 37 38 39 41 43 45 48 50 52 53 53 54 54 53 52 52 54 55 56 57 58
23 23 23 22 22 22 22 22 22 22 21 21 21 22 22 23 23 23 23 23 23 23 23 23 24 25 26 28 29 30 31 33 34 35 36 37 37 38 39 40 39 39 40 42 43 42 41 41 41 42 41 41 43 45 45 42 39 39 40 40 40 41 42 42 41 41 41 41 41 43 46 48 50 51 52 53 53 54 54 54 53 53 54 56 57 58 59
23 23 23 23 23 22 22 22 22 23 22 22 23 23 24 24 24 23 23 22 22 22 23 24 25 26 27 29 30 31 33 35 36 37 38 38 38 38 39 39 39 40 42 44 43 41 41 41 41 42 44 46 48 48 46 42 41 43 44 43 43 44 43 42 42 43 43 44 45 47 49 50 51 51 52 53 54 54 54 55 55 55 56 58 59 60 61
24 23 23 23 23 22 22 22 23 23 24 24 25 25 25 24 24 23 21 21 21 22 23 25 26 27 28 31 32 32 34 36 37 38 38 38 38 38 38 38 39 41 42 44 42 40 40 40 41 44 49 50 48 46 45 44 44 45 45 45 45 45 43 41 42 42 44 46 47 49 50 50 51 52 52 53 54 55 56 56 56 57 58 60 61 62 64
25 24 23 23 23 23 23 23 24 25 26 26 26 26 25 24 23 22 20 20 21 22 24 25 27 29 31 33 33 33 34 36 37 38 38 37 37 37 37 38 38 39 42 44 42 38 37 40 43 47 52 52 48 45 46 46 46 46 45 44 43 42 41 41 41 41 42 44 45 46 46 47 49 51 52 53 55 56 57 58 59 60 61 63 65 67 69
25 25 24 24 24 24 24 25 26 26 26 26 26 25 24 22 20 19 19 20 21 22 24 27 30 31 32 34 36 35 35 35 37 38 39 38 35 35 37 38 38 38 41 43 39 36 37 41 45 50 54 53 50 47 47 47 46 45 43 42 42 40 40 41 42 42 42 42 43 44 44 46 48 51 53 55 58 59 60 61 62 64 66 67 69 70 72
26 25 25 25 25 25 26 26 26 26 26 25 24 23 20 17 16 17 18 20 22 24 27 30 32 33 34 35 37 37 36 36 37 39 40 40 37 36 40 40 37 35 39 40 38 37 40 43 47 52 55 53 50 49 48 47 45 44 42 41 40 39 39 41 43 44 44 44 45 47 48 49 52 54 56 59 61 64 66 67 67 68 69 70 71 73 75
26 25 25 25 25 25 25 25 25 25 25 23 21 19 16 15 15 17 19 21 25 28 30 32 34 35 35 35 36 37 37 37 37 38 40 41 39 39 41 40 35 33 37 39 39 40 43 45 49 54 56 53 50 50 48 45 44 43 42 41 41 40 41 43 45 46 47 47 49 52 53 55 58 60 62 65 68 70 72 73 73 73 74 74 75 77 76
25 25 25 24 24 24 25 25 25 24 21 19 17 16 15 15 16 19 23 25 28 30 32 33 35 36 36 35 36 37 37 37 37 39 40 41 41 39 38 38 38 39 40 41 42 44 47 49 53 56 55 51 49 48 46 45 45 45 44 44 43 43 44 46 47 49 50 52 55 58 60 62 64 66 68 72 75 77 78 78 78 78 76 74 73 71 68
26 25 25 25 24 24 24 24 23 21 18 15 14 15 16 18 21 25 28 29 30 32 34 35 37 38 37 37 38 39 39 38 40 41 41 41 41 37 34 37 42 43 42 42 44 48 50 52 54 54 52 50 49 47 46 46 46 46 46 47 46 46 47 48 50 52 55 57 60 63 66 68 72 75 77 79 81 81 80 78 75 72 69 66 65 64 62
27 26 25 25 24 24 23 21 19 17 15 14 14 16 19 23 26 29 30 31 33 34 35 36 37 39 39 39 39 40 40 40 41 42 41 39 39 38 38 40 43 44 42 42 45 49 51 52 53 51 50 49 49 48 48 49 48 48 48 49 49 50 51 53 55 59 62 65 69 73 76 79 81 81 81 80 78 76 72 68 65 63 62 62 63 62 61
27 26 25 25 25 23 21 19 16 15 16 17 19 22 24 26 28 29 31 33 34 35 36 38 39 41 41 40 39 41 43 42 42 43 41 38 38 41 42 41 41 40 39 40 44 49 52 54 52 50 50 52 52 51 51 51 50 50 51 53 55 57 60 64 68 71 73 75 77 77 77 77 76 74 72 70 67 65 63 61 59 58 57 58 58 59 58
28 26 25 24 23 22 20 19 17 18 19 21 23 25 27 28 29 30 32 34 35 36 38 40 41 42 42 40 41 44 45 42 42 44 42 38 38 40 39 39 40 41 39 40 45 51 54 53 51 52 53 54 53 53 53 54 56 58 60 62 65 67 68 70 70 70 69 68 67 66 65 65 64 64 63 61 60 59 59 58 56 54 52 51 51 51 51
28 26 25 23 22 21 21 21 21 22 22 24 26 27 28 30 31 31 33 35 37 38 40 41 42 43 43 42 43 46 45 42 42 43 41 36 35 34 31 33 39 44 45 46 50 54 54 53 53 55 56 56 57 59 61 62 63 64 64 64 64 63 62 61 61 60 60 60 60 60 61 61 60 59 58 57 57 56 56 54 52 50 47 44 43 42 42
29 27 26 24 23 23 24 25 25 25 24 25 27 28 30 32 32 32 34 37 38 39 41 42 42 43 44 44 45 46 44 40 38 39 38 36 36 33 31 34 42 48 49 50 53 55 55 56 58 60 61 62 62 62 61 60 58 56 55 55 55 55 56 56 57 58 58 59 59 60 60 60 58 57 56 54 53 52 50 48 47 44 41 39 39 39 39
29 28 26 25 24 25 26 28 28 27 26 26 28 30 32 34 34 34 36 38 40 41 42 42 42 42 43 43 44 43 39 35 35 39 42 44 44 40 38 42 48 51 52 54 56 58 60 61 62 63 63 62 59 57 54 53 51 51 51 52 52 53 53 54 55 56 57 58 58 59 58 57 56 55 53 51 49 48 47 46 45 43 42 40 40 39 39
28 27 26 25 25 27 28 29 29 30 30 30 32 33 35 36 36 37 39 41 42 43 43 42 41 42 42 42 42 41 38 38 41 46 49 50 49 45 44 48 53 56 57 59 61 61 61 61 61 60 59 57 54 53 52 52 51 51 50 50 50 51 52 53 55 56 57 57 57 56 55 54 53 51 50 48 47 48 48 48 46 45 45 44 43 42 42
26 27 26 24 25 27 29 30 31 32 34 34 35 36 37 38 39 40 41 43 43 43 42 42 41 41 41 42 44 43 41 41 44 48 52 54 53 51 51 54 57 58 59 60 60 59 58 58 56 55 54 54 53 52 51 50 49 49 48 48 49 51 53 54 55 56 57 57 57 56 55 54 53 51 50 49 49 49 50 50 48 47 46 46 45 44 44
Wind_Direction
71 72 65 58 53 48 46 45 42 41 42 42 42 39 34 30 30 29 26 20 12 5 359 356 1 10 24 33 34 34 27 17 8 358 351 347 343 339 335 334 334 332 332 332 331 332 331 328 327 328 330 330 329 328 329 330 331 332 332 329 327 323 314 308 311 318 318 314 315 305 293 293 295 299 299 295 294 290 283 270 272 273 249 248 228 245 290
59 60 60 57 53 47 41 38 36 34 34 36 38 40 36 32 35 39 39 38 34 29 26 21 15 14 17 18 18 16 10 5 358 350 346 340 336 334 331 329 328 327 327 327 328 331 329 324 323 324 327 326 324 323 325 327 327 327 327 325 322 318 314 311 315 323 324 321 320 310 302 298 296 298 297 295 294 291 287 277 271 271 263 253 204 239 289
50 43 40 40 40 41 38 34 31 28 29 29 30 36 36 32 34 39 40 42 41 39 39 37 30 24 19 11 6 2 355 350 343 338 335 331 329 328 326 324 323 323 323 323 324 324 322 320 320 322 323 322 320 320 322 323 323 323 324 322 318 312 310 310 308 306 305 305 305 306 306 301 296 299 298 297 295 287 284 278 259 255 264 253 224 254 291
52 39 28 23 17 15 15 18 18 16 19 20 18 26 29 26 30 34 36 38 36 35 39 38 32 28 20 10 4 357 346 338 332 330 327 323 323 324 321 320 320 319 319 319 319 319 318 317 318 319 319 319 318 317 318 320 320 321 320 319 317 312 309 309 302 288 286 296 302 306 305 300 298 301 301 298 296 290 282 266 253 261 267 264 267 275 290
54 39 24 11 359 353 351 350 352 352 358 2 7 16 18 16 26 29 29 32 28 30 37 34 29 27 19 10 3 354 344 337 332 330 327 322 320 320 318 318 317 317 317 317 317 317 315 313 313 314 314 315 315 314 315 317 316 317 317 316 316 310 307 308 304 299 299 303 307 306 302 298 298 301 302 299 297 292 283 271 273 278 268 269 286 289 289
31 23 13 1 350 342 335 329 327 329 331 333 345 4 5 7 28 31 26 28 25 28 30 21 17 18 16 11 1 350 345 337 332 330 326 324 322 320 320 317 315 317 316 316 318 316 312 311 312 312 312 313 314 313 314 315 314 315 315 314 313 309 306 308 307 305 305 306 308 305 299 297 298 299 303 302 298 296 292 291 290 283 267 274 293 296 294
3 0 357 353 347 342 339 335 329 325 322 320 332 351 355 3 23 29 26 26 22 20 15 8 5 3 4 4 353 346 344 336 332 329 325 323 322 320 320 316 314 316 315 316 318 315 312 313 313 312 312 313 314 314 314 315 314 315 314 312 311 307 304 307 308 307 307 309 311 309 304 302 301 304 307 305 302 303 302 303 300 285 278 287 297 297 298
346 345 343 342 342 340 339 340 339 339 341 342 343 346 345 356 11 15 16 15 10 7 4 2 1 358 357 358 352 347 344 339 337 333 328 327 326 323 321 319 318 318 317 316 316 313 313 315 314 313 313 314 315 315 314 315 314 313 312 309 308 305 302 306 308 307 308 313 317 318 314 310 308 311 314 313 314 314 309 305 301 290 289 296 298 296 300
347 349 350 349 349 349 347 347 348 348 349 350 350 352 356 2 6 6 7 4 359 359 359 356 355 353 353 354 351 347 345 342 340 338 335 334 332 327 324 322 321 320 319 318 316 314 315 315 314 314 314 314 316 314 313 314 313 311 310 307 306 305 302 305 309 307 307 312 318 320 318 313 311 315 330 328 321 316 309 305 302 300 301 302 297 297 306
13 17 18 17 17 15 13 11 9 8 7 2 359 2 5 6 3 3 2 358 355 357 357 353 352 353 353 352 350 347 345 343 341 340 338 336 334 331 328 326 325 324 323 321 319 318 318 317 316 315 314 314 315 314 313 313 312 310 309 306 306 306 304 307 308 304 306 313 319 321 320 317 315 327 332 323 319 314 307 303 309 313 310 302 300 306 316
27 28 28 29 28 27 27 26 23 23 21 16 15 16 14 11 6 2 359 355 355 357 356 354 353 355 354 353 351 349 347 345 344 343 342 340 337 334 332 331 329 328 328 325 323 323 321 320 318 317 316 317 317 316 315 314 314 313 311 310 310 310 308 308 304 299 306 315 322 323 323 318 317 323 323 317 313 316 310 304 312 317 311 307 310 316 322
26 27 27 28 28 27 28 27 26 26 24 23 24 21 16 12 9 2 357 357 357 355 354 353 352 352 351 349 349 347 346 346 344 344 344 343 341 338 336 334 332 331 331 328 327 325 323 321 320 319 320 321 320 320 319 319 319 318 318 317 315 314 312 308 304 299 305 317 327 331 322 311 316 323 325 314 306 316 315 306 312 318 315 317 321 320 320
32 34 34 34 33 32 31 30 28 27 24 24 22 18 15 13 10 6 2 2 2 358 355 354 350 348 347 344 343 341 340 340 340 340 340 339 339 338 337 335 333 333 332 331 329 328 326 325 324 324 325 326 326 326 326 325 323 322 323 322 319 318 316 311 308 305 307 316 323 315 305 314 322 330 333 324 317 319 318 311 316 325 325 326 326 319 318
37 38 37 36 34 33 31 29 27 25 23 21 18 16 15 13 11 9 6 6 7 2 357 353 348 344 342 338 335 333 333 333 332 333 333 333 334 335 334 333 332 332 332 331 329 329 329 329 329 329 330 332 331 330 329 328 326 325 325 323 322 321 317 312 309 305 304 302 301 303 308 316 328 334 332 330 326 322 319 314 318 328 332 328 325 320 318
38 38 37 36 35 33 31 29 26 24 22 19 16 14 13 10 9 9 7 7 7 3 357 353 348 344 340 335 331 331 329 327 326 327 327 328 328 329 329 329 328 329 330 329 327 328 329 331 332 331 332 333 330 326 327 327 324 323 324 323 323 320 314 310 302 295 297 293 297 311 309 312 329 335 332 331 330 324 320 314 317 327 332 326 324 320 316
40 40 39 38 36 34 32 30 27 23 21 19 16 14 12 9 8 8 6 4 3 1 357 353 348 344 341 337 334 331 328 325 324 323 322 322 323 324 325 325 325 327 327 326 325 325 327 329 330 327 326 327 324 321 322 322 319 321 323 322 321 317 312 307 296 291 293 286 287 295 269 297 325 337 335 332 333 329 323 315 316 325 327 322 320 317 314
37 36 36 35 34 32 30 28 25 22 19 18 15 12 11 9 7 8 7 3 360 358 355 351 346 343 339 336 333 331 328 325 323 321 320 320 320 320 320 321 321 323 324 323 323 324 325 327 327 323 320 320 319 316 317 317 316 318 320 319 319 317 311 304 295 292 292 284 280 279 281 304 324 336 336 334 334 330 324 315 316 322 320 316 314 313 313
29 29 28 28 27 26 25 23 21 18 16 14 12 9 8 7 6 8 10 5 1 359 355 349 345 341 337 334 332 330 326 322 320 318 317 318 318 317 318 319 321 322 323 322 322 323 323 323 323 321 316 315 316 314 312 312 312 314 316 316 315 313 308 301 295 295 294 284 276 281 296 312 327 334 330 330 331 327 321 314 315 317 312 309 311 311 312
23 22 22 21 20 19 19 18 17 14 12 10 7 5 5 4 4 9 13 10 6 3 358 351 347 342 338 334 332 329 325 322 320 317 316 317 317 317 317 319 321 321 321 320 320 321 321 319 319 317 311 312 315 312 307 308 311 312 312 311 310 308 304 299 296 297 296 288 280 285 300 316 327 325 322 325 327 323 317 312 311 308 304 306 309 310 312
19 17 16 14 14 14 13 12 11 9 8 6 4 2 2 2 3 9 13 13 10 6 1 356 353 348 343 338 335 331 328 325 321 317 316 317 317 318 319 321 322 320 318 317 318 318 316 314 315 312 308 310 312 308 308 310 311 310 309 308 306 303 296 295 299 301 298 292 286 289 300 312 318 318 318 321 321 317 313 310 305 301 304 308 310 311 313
12 10 10 9 8 8 7 7 6 5 4 3 1 0 360 359 3 9 11 12 12 9 5 2 360 356 350 345 342 337 333 328 324 320 317 316 318 320 321 323 323 321 319 318 317 316 313 310 310 308 306 307 307 307 309 311 310 310 310 308 305 302 298 297 301 302 296 288 287 294 303 310 315 316 315 313 311 310 309 306 302 302 307 309 310 311 312
4 2 2 2 2 3 3 3 2 1 1 0 358 356 356 357 1 7 10 10 9 8 8 6 3 359 353 349 345 339 335 332 328 325 322 318 318 318 315 315 317 317 318 318 317 316 313 309 307 306 305 305 307 308 310 308 306 309 311 307 303 303 304 303 301 299 294 290 293 301 309 313 313 312 311 311 310 309 306 302 301 304 307 309 310 310 311
354 354 355 354 355 357 358 359 359 358 358 358 355 354 353 354 358 5 9 9 8 8 9 7 4 1 355 351 346 339 336 334 330 327 324 320 318 316 314 312 311 311 312 313 312 312 311 309 307 306 305 306 308 309 308 306 305 308 311 308 304 305 306 305 303 301 299 298 302 309 315 313 309 311 314 315 316 314 308 304 305 308 309 311 312 312 313
344 346 348 348 348 351 353 354 355 355 355 355 354 352 351 352 356 2 7 11 13 13 11 6 4 1 354 349 346 342 339 336 332 329 327 324 321 319 316 314 312 309 309 310 309 309 310 309 309 307 307 308 309 308 307 306 308 310 310 307 305 306 307 305 303 303 303 303 308 314 314 309 309 313 315 316 316 313 309 308 310 311 312 312 313 316 318
337 339 341 342 343 345 347 349 351 351 353 353 352 350 350 352 354 357 3 10 18 20 15 10 8 3 356 352 351 347 343 341 338 337 335 334 331 327 323 320 316 313 310 307 307 307 308 308 308 308 309 310 309 307 307 307 308 309 307 305 306 309 310 307 306 306 306 305 308 311 310 308 311 314 314 314 312 308 307 310 312 312 311 309 308 313 319
330 333 335 336 337 339 342 344 346 348 350 351 351 350 349 350 351 353 357 4 11 17 17 16 13 8 4 4 2 357 353 350 348 347 345 344 343 339 334 330 325 320 314 310 308 307 305 305 305 306 308 308 306 306 306 306 307 305 303 305 311 314 313 311 310 309 308 308 312 317 317 314 316 317 315 312 307 304 306 309 309 307 306 304 303 308 318
322 326 328 329 331 334 336 339 341 344 346 347 347 347 347 348 349 351 353 357 4 11 16 18 17 13 12 14 11 5 2 358 355 354 353 352 350 347 344 341 336 330 326 320 317 314 310 308 307 307 307 308 307 306 307 308 307 305 306 312 319 321 319 318 315 312 311 313 318 324 322 317 318 319 315 309 305 303 304 305 305 306 308 308 306 306 311
315 318 321 323 325 328 330 333 336 339 341 342 343 343 345 345 346 347 350 354 359 6 10 13 13 12 13 17 15 10 8 6 2 1 0 358 356 353 351 348 344 341 337 333 330 327 322 319 317 315 315 315 312 310 311 311 309 311 318 325 329 327 327 326 321 315 313 314 318 321 317 313 315 315 309 304 302 301 300 301 303 306 309 311 312 311 311
309 313 316 319 321 323 325 328 331 333 334 336 338 339 341 343 344 344 348 352 355 360 3 6 9 10 11 13 13 11 10 8 5 3 3 2 0 358 355 353 349 346 344 342 339 337 334 330 326 323 324 323 316 313 314 314 314 321 333 338 334 332 332 330 324 317 312 312 315 317 316 314 314 311 306 302 299 297 295 297 299 302 304 307 310 312 313
305 308 311 314 316 318 321 323 325 328 330 331 333 335 338 340 340 341 343 346 349 352 355 357 2 6 7 7 6 5 5 4 2 1 1 359 357 356 355 353 350 347 345 345 344 342 340 335 330 328 328 325 317 315 317 317 319 329 341 339 333 332 329 324 319 313 309 310 313 315 316 317 317 314 310 306 301 296 294 294 295 297 301 304 306 308 310
303 305 307 311 313 315 317 319 321 323 325 327 329 331 334 337 338 337 338 339 341 344 346 348 352 354 355 358 358 356 355 356 356 355 353 351 350 349 349 348 346 344 342 342 341 341 340 336 333 332 331 326 319 319 321 321 321 328 334 333 331 330 322 314 310 305 303 306 308 309 311 315 315 315 314 312 309 305 300 297 296 295 297 299 302 305 306
302 303 305 307 309 311 313 315 318 320 322 324 326 328 330 333 334 334 334 334 335 337 338 339 343 347 347 349 349 347 345 347 349 348 347 345 343 343 343 344 343 340 338 337 336 337 336 333 331 332 332 327 323 323 325 326 325 326 328 329 329 326 318 313 312 307 303 303 305 306 309 311 312 313 313 312 311 308 305 303 300 298 298 299 300 301 302
301 302 303 305 307 309 311 313 316 318 320 322 323 326 328 330 331 331 332 331 331 332 332 331 334 340 342 341 341 341 339 339 340 340 340 341 340 339 338 339 339 336 333 333 333 334 333 330 328 329 329 327 323 323 325 329 329 328 326 326 326 323 319 316 315 310 305 304 305 306 308 309 310 309 309 308 308 305 302 301 300 299 299 300 299 299 300
302 303 303 304 305 307 309 312 314 317 319 319 321 325 326 327 328 329 328 328 327 327 326 326 328 332 334 334 335 337 335 334 334 335 335 337 337 335 334 334 334 333 331 329 330 331 331 329 326 325 325 323 320 320 324 328 329 326 324 323 322 321 319 317 315 311 307 304 303 303 304 305 306 306 305 305 304 302 299 297 296 296 297 298 299 299 300
303 303 303 304 305 306 309 311 313 315 317 318 320 323 324 325 326 325 324 324 322 321 322 323 323 324 326 328 330 332 332 331 331 332 332 332 333 332 330 330 330 330 328 327 327 329 329 328 325 323 323 321 319 320 324 326 325 322 321 320 319 318 317 316 314 311 308 304 300 300 300 301 301 302 303 303 302 300 299 297 296 297 297 298 298 299 300
301 302 303 304 305 306 308 310 311 313 315 318 321 323 323 323 323 321 320 319 317 317 319 319 319 322 325 325 326 328 328 327 328 329 329 329 329 329 328 327 327 327 326 324 324 326 326 324 322 320 319 318 320 323 326 325 322 320 319 318 317 316 315 314 312 309 306 303 299 297 297 297 298 298 299 299 299 299 298 298 298 298 299 298 299 300 301
298 299 301 302 304 306 308 309 311 312 314 318 321 322 322 322 321 318 316 314 314 314 315 315 317 321 323 323 325 326 325 325 327 326 326 327 327 327 326 325 325 325 323 320 321 323 322 320 317 315 315 318 322 325 326 323 320 319 318 317 316 315 313 310 308 305 302 300 297 294 293 294 294 294 294 295 296 296 296 297 298 299 301 301 302 302 303
295 297 299 301 304 306 308 309 311 312 315 319 321 321 321 320 318 314 312 311 311 311 312 313 316 319 320 321 324 325 325 326 325 324 324 326 326 325 325 324 323 322 318 317 319 320 318 315 313 312 314 319 324 326 324 321 319 317 316 315 314 312 308 304 300 296 294 293 293 292 291 292 292 292 293 294 295 295 296 297 299 301 303 304 304 304 304
294 296 299 301 303 305 307 309 311 314 316 318 319 319 318 316 313 310 309 308 307 309 312 314 316 318 320 321 323 325 326 325 323 322 323 324 325 324 322 320 319 317 313 313 317 317 313 311 311 310 313 321 326 324 321 319 317 315 313 311 309 306 302 296 291 287 286 286 288 289 291 294 296 296 296 296 296 295 296 298 300 303 304 304 305 306 306
294 296 299 301 303 306 308 310 312 314 315 316 316 315 313 311 309 307 307 307 308 310 313 315 316 319 321 322 323 325 325 323 322 322 321 322 323 322 317 315 316 313 308 310 315 314 309 307 307 307 313 322 325 320 316 316 314 312 309 306 303 300 296 290 284 281 280 281 283 285 288 292 295 297 298 299 300 299 299 301 302 304 305 306 305 305 305
294 296 299 302 304 307 308 309 311 312 314 315 314 313 310 309 308 308 309 310 312 314 315 316 317 319 321 322 322 322 322 322 322 320 319 320 321 318 314 314 313 307 304 309 313 310 305 302 302 307 316 323 321 315 312 311 309 306 304 302 299 295 290 284 280 278 279 281 284 286 288 291 295 297 300 302 303 304 305 305 305 306 306 305 304 303 302
294 296 299 301 303 305 307 308 310 313 314 313 313 312 309 309 311 311 312 314 314 314 316 317 317 318 320 321 320 319 320 320 320 318 317 318 317 314 312 311 305 298 301 308 309 304 299 296 300 310 319 320 314 310 309 306 304 304 303 300 296 290 284 280 277 275 277 282 288 291 293 294 296 299 302 304 306 307 308 308 308 307 306 304 302 301 301
293 295 297 299 301 304 306 308 311 313 313 312 311 310 310 311 312 312 313 313 313 314 315 315 315 315 317 317 316 316 317 318 318 316 314 313 313 310 308 305 300 298 302 304 302 298 295 295 303 314 320 317 310 307 305 303 303 304 301 298 293 286 280 277 277 277 280 285 291 296 298 299 300 301 304 306 308 308 307 306 306 305 303 301 300 299 300
293 295 297 299 302 305 308 310 311 311 311 310 308 307 306 308 309 310 311 312 313 313 314 314 313 314 315 316 316 316 318 319 317 313 309 309 309 305 298 297 300 301 300 297 295 293 294 299 310 319 319 313 308 305 303 302 303 301 298 296 291 284 279 278 280 282 285 288 293 297 300 301 302 303 303 303 304 304 303 302 301 300 299 298 297 297 299
295 298 300 302 305 308 310 312 312 311 311 310 307 305 304 306 309 310 311 312 312 312 312 313 313 312 313 315 316 317 317 315 312 309 306 305 303 299 296 298 301 298 293 289 289 290 296 307 317 319 313 308 306 303 301 301 300 297 295 294 290 286 285 286 289 291 293 295 298 300 301 301 301 301 300 299 299 300 300 300 299 299 298 298 297 298 299
296 298 301 305 309 311 312 313 313 311 310 308 306 305 306 307 309 311 312 312 311 311 311 311 311 311 312 315 316 316 314 311 308 307 305 300 296 298 301 301 296 289 283 279 282 291 303 314 318 313 308 306 304 301 299 299 297 295 293 293 292 292 293 295 296 297 298 299 300 300 300 300 300 300 300 300 301 301 301 301 301 301 302 302 302 302 302
296 299 304 308 312 312 313 313 312 310 309 308 307 308 308 309 311 312 312 310 310 310 311 311 311 311 313 315 315 314 312 308 305 306 305 298 293 295 296 292 287 284 280 277 285 299 310 314 312 308 306 304 302 300 299 298 296 295 295 295 296 297 298 299 299 300 301 301 301 301 301 301 301 302 303 304 304 304 303 304 305 306 307 308 307 306 305
297 301 306 309 311 311 311 311 309 310 311 311 310 310 311 312 313 313 311 310 310 311 311 312 312 312 314 315 313 311 309 307 305 306 306 300 291 288 285 282 283 286 287 288 296 306 311 309 305 304 303 301 300 300 300 299 299 299 300 301 302 304 304 305 306 306 305 305 305 304 304 304 305 305 307 308 308 307 308 308 309 310 311 310 308 306 305
299 302 306 308 309 309 308 307 308 311 313 313 312 312 313 313 314 313 311 311 311 311 311 311 311 311 312 312 309 308 308 308 306 305 302 295 289 284 280 279 283 288 294 299 304 305 305 303 302 302 301 300 301 302 303 304 306 308 309 310 311 312 312 312 311 310 309 308 307 307 308 309 309 310 311 311 312 312 312 312 312 312 311 309 307 306 304
300 302 304 306 307 307 306 305 307 311 313 312 313 314 313 313 313 313 311 311 311 310 310 310 310 310 310 310 307 307 309 308 304 299 296 294 291 286 279 280 287 294 300 304 304 303 302 303 303 302 303 305 307 309 312 314 314 314 315 315 315 316 316 316 315 315 314 312 311 311 312 312 312 313 313 314 315 316 315 314 313 312 311 309 307 306 305
300 301 302 305 306 304 303 305 308 311 312 313 314 315 315 314 314 313 312 311 310 310 311 311 310 310 310 309 308 307 306 304 300 297 297 297 296 290 284 288 297 303 304 305 305 305 305 305 305 306 309 312 314 316 317 317 316 317 317 318 318 319 319 320 319 319 318 316 316 315 315 315 314 315 315 316 316 317 316 314 313 312 311 310 308 307 307
300 301 302 305 305 303 304 307 311 312 312 314 315 315 315 314 313 312 311 310 310 311 312 311 310 309 310 309 306 304 301 298 297 298 299 301 301 299 297 300 304 307 307 306 307 307 307 308 309 312 314 315 316 317 318 318 317 317 317 317 319 320 321 320 320 319 318 318 317 317 316 315 315 315 315 315 316 317 317 316 315 314 313 312 310 309 309